TimeWEST,TemperatureF,Dew PointF,Humidity,Sea Level PressureIn,VisibilityMPH,Wind Direction,Wind SpeedMPH,Gust SpeedMPH,PrecipitationIn,Events,Conditions,WindDirDegrees,DateUTC
12:00 AM,55.4,37.4,51,29.95,6.2,NE,10.4,-,N/A,,Mostly Cloudy,40,2013-04-28 23:00:00
12:30 AM,53.6,37.4,54,29.95,6.2,NNE,11.5,-,N/A,,Mostly Cloudy,30,2013-04-28 23:30:00
1:00 AM,53,36,41,29.97,6,NE,9.2,,,,Mostly Cloudy,40,2013-04-29 00:00:00
1:00 AM,53.6,35.6,51,29.95,6.2,NE,8.1,-,N/A,,Mostly Cloudy,40,2013-04-29 00:00:00
1:30 AM,53.6,35.6,51,29.95,6.2,NNE,8.1,-,N/A,,Scattered Clouds,30,2013-04-29 00:30:00
2:00 AM,53.6,35.6,51,29.95,6.2,NNE,9.2,-,N/A,,Scattered Clouds,20,2013-04-29 01:00:00
2:30 AM,51.8,35.6,54,29.95,6.2,NNE,8.1,-,N/A,,Scattered Clouds,30,2013-04-29 01:30:00
3:00 AM,51.8,32.0,47,29.92,6.2,NNE,8.1,-,N/A,,Scattered Clouds,30,2013-04-29 02:00:00
3:30 AM,51.8,33.8,50,29.92,6.2,NE,10.4,-,N/A,,Unknown,40,2013-04-29 02:30:00
4:00 AM,52,34,38,29.94,6,NE,6.9,,,,,40,2013-04-29 03:00:00
4:00 AM,51.8,33.8,50,29.92,6.2,NE,5.8,-,N/A,,Unknown,40,2013-04-29 03:00:00
4:30 AM,51.8,33.8,50,29.92,6.2,NE,5.8,-,N/A,,Unknown,40,2013-04-29 03:30:00
5:00 AM,51.8,33.8,50,29.92,6.2,NE,5.8,-,N/A,,Unknown,50,2013-04-29 04:00:00
5:30 AM,51.8,33.8,50,29.92,-9999.0,NE,6.9,-,N/A,,Clear,50,2013-04-29 04:30:00
6:00 AM,51.8,33.8,50,29.92,6.2,NE,4.6,-,N/A,,Mostly Cloudy,50,2013-04-29 05:00:00
6:30 AM,51.8,35.6,54,29.92,6.2,NE,6.9,-,N/A,,Mostly Cloudy,50,2013-04-29 05:30:00
7:00 AM,50,35,44,29.94,6,ENE,4.6,,,,Scattered Clouds,60,2013-04-29 06:00:00
7:00 AM,50.0,35.6,58,29.92,6.2,NE,4.6,-,N/A,,Mostly Cloudy,50,2013-04-29 06:00:00
7:30 AM,51.8,35.6,54,29.92,6.2,NE,5.8,-,N/A,,Mostly Cloudy,40,2013-04-29 06:30:00
8:00 AM,51.8,35.6,54,29.92,6.2,NE,4.6,-,N/A,,Mostly Cloudy,40,2013-04-29 07:00:00
8:30 AM,51.8,35.6,54,29.95,6.2,NE,6.9,-,N/A,,Mostly Cloudy,40,2013-04-29 07:30:00
9:00 AM,53.6,35.6,51,29.95,6.2,Calm,Calm,-,N/A,,Mostly Cloudy,0,2013-04-29 08:00:00
9:30 AM,55.4,35.6,47,29.95,6.2,Calm,Calm,-,N/A,,Mostly Cloudy,0,2013-04-29 08:30:00
10:00 AM,55,35,34,29.95,6,Calm,Calm,,,,Mostly Cloudy,,2013-04-29 09:00:00
10:00 AM,55.4,35.6,47,29.95,6.2,Calm,Calm,-,N/A,,Mostly Cloudy,0,2013-04-29 09:00:00
10:30 AM,57.2,35.6,44,29.95,6.2,NNE,3.5,-,N/A,,Scattered Clouds,30,2013-04-29 09:30:00
11:00 AM,57.2,33.8,41,29.95,6.2,Variable,2.3,-,N/A,,Scattered Clouds,0,2013-04-29 10:00:00
11:30 AM,59.0,32.0,36,29.95,6.2,Variable,4.6,-,N/A,,Scattered Clouds,0,2013-04-29 10:30:00
12:00 PM,59.0,32.0,36,29.95,6.2,Calm,Calm,-,N/A,,Scattered Clouds,0,2013-04-29 11:00:00
12:30 PM,60.8,33.8,36,29.95,6.2,South,3.5,-,N/A,,Scattered Clouds,170,2013-04-29 11:30:00
1:00 PM,62,33,22,29.91,6,NE,4.6,,,,Partly Cloudy,50,2013-04-29 12:00:00
1:00 PM,60.8,33.8,36,29.92,6.2,NE,4.6,-,N/A,,Scattered Clouds,50,2013-04-29 12:00:00
1:30 PM,62.6,32.0,32,29.92,6.2,West,3.5,-,N/A,,Scattered Clouds,280,2013-04-29 12:30:00
2:00 PM,62.6,32.0,32,29.92,6.2,West,1.2,13.8,N/A,,Scattered Clouds,280,2013-04-29 13:00:00
2:30 PM,64.4,32.0,30,29.92,6.2,Variable,3.5,-,N/A,,Scattered Clouds,0,2013-04-29 13:30:00
3:00 PM,66.2,30.2,26,29.89,6.2,NE,5.8,-,N/A,,Scattered Clouds,50,2013-04-29 14:00:00
3:30 PM,66.2,32.0,28,29.89,6.2,WNW,6.9,-,N/A,,Scattered Clouds,300,2013-04-29 14:30:00
4:00 PM,67,30,15,29.84,6,SSW,1.2,,,,Scattered Clouds,210,2013-04-29 15:00:00
4:00 PM,66.2,30.2,26,29.89,6.2,Variable,3.5,-,N/A,,Scattered Clouds,0,2013-04-29 15:00:00
4:30 PM,68.0,28.4,23,29.86,6.2,West,9.2,-,N/A,,Partly Cloudy,270,2013-04-29 15:30:00
5:00 PM,68.0,28.4,23,29.86,6.2,WSW,8.1,-,N/A,,Partly Cloudy,250,2013-04-29 16:00:00
5:30 PM,68.0,26.6,21,29.86,6.2,West,11.5,-,N/A,,Partly Cloudy,280,2013-04-29 16:30:00
6:00 PM,68.0,26.6,21,29.86,6.2,North,3.5,-,N/A,,Partly Cloudy,360,2013-04-29 17:00:00
6:30 PM,68.0,26.6,21,29.86,6.2,WNW,5.8,-,N/A,,Partly Cloudy,290,2013-04-29 17:30:00
7:00 PM,68,28,12,29.82,6,West,8.1,,,,,270,2013-04-29 18:00:00
7:00 PM,68.0,28.4,23,29.86,-9999.0,West,5.8,-,N/A,,Clear,280,2013-04-29 18:00:00
7:30 PM,68.0,28.4,23,29.86,-9999.0,West,10.4,-,N/A,,Clear,270,2013-04-29 18:30:00
8:00 PM,66.2,30.2,26,29.86,-9999.0,WNW,8.1,-,N/A,,Clear,300,2013-04-29 19:00:00
8:30 PM,64.4,30.2,28,29.89,-9999.0,NW,9.2,-,N/A,,Clear,310,2013-04-29 19:30:00
9:00 PM,62.6,35.6,37,29.89,-9999.0,NNW,10.4,-,N/A,,Clear,330,2013-04-29 20:00:00
9:30 PM,60.8,37.4,42,29.92,-9999.0,NNW,10.4,-,N/A,,Clear,330,2013-04-29 20:30:00
10:00 PM,59,38,34,29.91,6,NNW,10.4,,,,,330,2013-04-29 21:00:00
10:00 PM,59.0,37.4,45,29.92,-9999.0,NNW,10.4,-,N/A,,Clear,330,2013-04-29 21:00:00
10:30 PM,57.2,37.4,48,29.95,-9999.0,NW,9.2,-,N/A,,Clear,320,2013-04-29 21:30:00
11:00 PM,55.4,39.2,54,29.95,-9999.0,NW,9.2,-,N/A,,Clear,310,2013-04-29 22:00:00
11:30 PM,55.4,41.0,58,29.95,-9999.0,NW,9.2,-,N/A,,Clear,320,2013-04-29 22:30:00